Theta_e
295 295 296 296 296 296 296 296 299 297 298 298 298 298 298 298 299 299 299 302 303 305 305 306 305 305 305 304 305 304 304 303 303 306 308 307 306 307 309 311 311 311 311 308 307 310 310 304 304 306 302 300 299 296
294 294 295 296 296 296 296 297 298 298 298 298 297 297 298 299 298 298 298 303 303 304 305 305 304 304 305 304 304 304 304 303 303 305 304 304 307 307 308 308 310 310 307 307 306 305 301 302 303 301 299 298 297 296
294 294 295 295 295 296 295 298 298 297 298 297 297 298 299 298 298 297 298 303 303 302 302 303 303 304 305 305 304 304 303 302 303 302 306 306 308 305 309 306 308 307 305 302 302 300 301 301 301 298 297 295 294 294
294 294 295 295 296 295 295 298 298 296 296 297 297 298 298 297 297 298 299 303 303 300 303 302 302 303 305 305 304 304 303 305 304 304 305 306 305 305 306 308 306 304 303 301 299 299 300 300 299 296 294 293 293 292
293 294 294 295 296 295 297 298 297 296 295 296 298 298 297 298 301 301 302 304 304 302 303 302 302 302 303 304 304 304 303 303 301 302 303 304 303 304 303 305 305 304 302 299 299 298 298 297 296 295 294 293 292 291
293 294 294 296 295 295 298 297 296 295 296 297 298 297 298 301 302 303 297 302 302 301 301 301 300 301 301 303 302 301 301 301 300 301 303 304 304 304 302 304 305 304 303 302 303 298 298 296 295 295 293 293 293 292
294 294 294 294 294 298 297 297 295 295 297 297 297 296 298 302 300 300 299 302 301 301 300 299 300 300 301 300 299 299 299 300 299 300 301 301 301 302 298 304 304 303 301 299 298 298 297 296 295 295 293 293 292 291
294 294 294 293 297 298 297 296 295 295 296 297 297 300 300 300 300 299 301 303 304 302 299 299 300 300 300 299 299 298 299 299 299 299 299 302 299 299 302 303 302 301 299 299 299 298 296 296 295 294 292 291 289 287
294 293 294 295 298 297 294 295 296 296 297 297 299 300 300 300 298 299 302 302 303 302 299 297 299 298 300 299 298 299 299 298 298 300 300 300 299 299 302 302 302 300 300 299 297 296 296 296 294 291 290 288 287 285
293 292 297 297 296 294 294 294 296 296 296 297 298 297 296 298 300 300 299 297 299 299 299 298 297 300 299 298 298 299 297 298 301 300 298 298 299 301 302 302 301 300 299 298 296 295 294 292 291 290 289 287 287 285
293 298 297 296 294 293 293 296 296 296 296 297 294 296 299 300 298 296 293 296 297 300 300 299 299 300 299 299 298 297 298 298 301 301 299 300 302 299 300 300 300 299 298 297 297 296 294 292 290 289 288 287 286 285
297 297 297 295 293 295 296 296 296 297 298 297 298 299 299 298 295 296 294 296 301 301 299 299 300 300 298 298 298 297 299 297 304 296 297 298 298 300 300 299 299 298 297 297 296 294 293 292 290 289 288 287 287 286
296 296 295 295 295 296 296 296 297 298 298 297 297 295 294 290 291 290 293 298 298 296 297 298 299 298 298 296 295 297 296 295 295 292 297 298 296 299 299 298 297 296 297 296 295 295 294 292 291 290 288 288 287 286
296 296 296 295 296 296 295 297 298 298 299 294 294 291 293 289 298 299 301 298 295 294 297 296 296 298 293 296 298 295 296 297 293 296 302 295 297 297 296 295 294 293 291 292 292 292 291 290 290 290 290 289 287 285
295 295 296 296 295 296 296 297 297 297 296 294 293 293 293 297 295 296 293 291 293 295 297 296 297 297 293 295 294 295 296 297 298 299 299 292 294 295 294 293 291 289 287 287 288 287 287 288 288 287 288 288 287 285
295 295 295 294 294 294 294 294 295 296 294 293 295 294 292 291 296 293 295 296 293 293 295 296 298 296 298 296 299 297 301 298 302 300 292 291 293 293 292 289 287 288 288 287 287 287 286 286 285 285 284 284 285 284
294 294 294 294 295 294 294 294 295 293 293 294 294 295 297 291 296 295 296 295 294 296 296 296 297 301 298 299 300 299 302 301 297 294 292 290 290 292 292 290 290 287 286 286 285 286 285 285 284 283 281 282 283 283
293 294 294 295 294 294 295 294 292 292 295 294 295 296 295 295 294 292 295 293 296 295 296 299 296 299 294 299 297 300 296 293 292 291 290 290 291 291 292 291 289 287 286 285 285 284 283 283 282 282 282 281 280 280
294 294 294 294 294 294 291 293 293 294 294 294 294 294 294 293 293 293 294 294 295 297 295 295 297 300 301 299 300 297 293 291 290 289 288 288 289 290 289 290 290 289 288 286 285 284 284 284 284 283 281 280 279 278
293 293 293 294 294 292 292 291 294 293 293 294 294 294 294 294 293 294 294 295 295 294 295 298 297 295 295 294 294 293 289 288 290 290 289 287 288 288 288 288 288 288 287 287 286 285 284 284 283 283 282 281 279 278
293 293 294 293 293 293 289 291 291 292 292 293 293 294 295 295 296 297 294 294 292 295 296 294 293 291 290 290 290 290 290 292 292 290 290 288 288 288 288 288 288 287 287 286 286 286 285 284 284 284 283 282 281 280
293 292 291 292 291 291 288 291 291 290 292 293 292 294 293 294 293 294 292 292 292 292 291 291 291 290 289 288 289 290 291 291 291 290 290 289 288 288 288 288 288 287 287 287 287 286 286 286 286 285 283 282 281 281
292 291 292 290 285 284 287 290 290 291 291 292 292 294 293 291 292 292 292 292 289 290 289 288 290 290 289 289 289 290 290 290 287 288 289 288 288 288 288 287 288 288 288 287 288 287 286 286 285 283 282 282 281 281
290 290 285 285 285 283 285 285 289 291 289 291 292 291 292 291 291 294 293 290 289 289 289 288 289 290 290 288 286 286 287 287 287 287 288 287 286 286 286 285 286 286 287 287 288 286 286 284 283 283 282 281 280 279
283 284 282 280 283 283 281 282 284 288 286 288 288 289 290 291 290 291 292 290 288 286 285 287 288 289 288 286 284 284 286 287 285 284 284 286 285 284 283 283 283 283 284 285 285 284 283 283 283 282 281 280 278 275
282 281 284 282 281 285 287 285 284 284 284 285 286 288 286 286 287 289 289 286 286 285 284 285 286 287 285 285 283 282 282 284 284 281 280 282 283 283 282 279 280 282 284 284 284 283 283 283 282 281 281 279 277 274
282 282 288 288 289 289 284 285 289 284 284 284 284 283 282 284 286 287 284 283 283 283 284 284 285 284 283 282 281 281 282 283 282 280 280 280 281 282 283 281 279 280 282 283 283 282 281 280 279 277 275 273 272 272
284 285 284 281 282 285 280 279 281 284 290 291 286 284 285 286 285 281 280 282 283 283 283 283 283 283 282 282 281 280 280 280 279 279 279 278 278 279 280 280 280 282 282 282 281 281 280 279 277 275 274 272 270 270
283 284 283 280 280 282 282 287 289 288 288 287 285 284 286 282 280 281 281 281 282 283 282 282 282 282 282 281 281 280 279 279 279 271 270 269 274 275 277 279 279 280 279 279 278 278 277 276 275 273 271 270 268 267
287 284 280 277 278 284 286 287 288 286 285 286 283 281 280 279 277 278 279 280 279 280 281 282 282 282 280 279 278 278 279 279 280 279 272 269 274 275 276 276 276 276 276 276 275 273 274 273 271 270 268 267 266 264
283 282 280 277 279 286 286 284 285 285 285 286 284 284 277 274 276 275 276 276 278 280 279 279 279 279 279 278 277 276 275 277 278 279 279 276 275 274 274 274 274 274 274 273 272 271 270 269 268 266 265 264 263 262
282 286 284 286 283 282 280 277 284 278 276 275 275 274 275 273 272 272 273 276 277 276 275 276 276 274 275 276 276 276 276 276 276 276 276 275 273 273 272 272 272 272 271 270 270 269 268 267 266 265 263 262 261 261
280 279 279 282 283 283 281 278 280 280 277 277 276 275 273 273 272 271 272 274 274 274 274 274 274 274 274 274 274 274 274 274 274 274 274 273 273 272 272 271 271 270 269 268 267 267 266 265 264 263 262 261 260 260
Wind_Speed
14 15 16 16 16 14 14 14 18 16 18 18 19 20 17 15 9 6 8 16 7 2 3 0 3 6 6 4 7 6 5 2 1 4 4 4 3 4 4 3 6 6 6 3 3 2 6 3 3 6 3 3 11 11
14 14 14 17 16 14 15 17 18 15 17 18 16 16 15 12 8 3 5 11 17 2 1 4 6 10 3 5 6 3 3 8 5 3 1 1 1 1 4 1 5 1 3 5 4 3 1 2 2 2 3 5 5 10
13 14 14 17 15 16 12 16 20 16 17 16 14 11 8 14 9 10 10 9 7 2 4 3 3 7 13 7 18 4 2 5 4 4 4 2 2 3 3 3 4 2 2 4 2 2 2 2 2 4 4 7 7 9
15 15 15 14 16 15 16 16 22 19 17 17 12 10 7 9 14 15 12 23 5 4 3 1 9 6 11 26 29 23 4 3 5 3 2 2 3 1 2 4 3 3 4 5 2 1 2 4 3 9 9 11 12 11
17 17 19 15 18 16 20 23 22 20 15 14 14 11 11 13 6 18 25 16 14 3 3 3 10 7 7 23 19 15 10 4 2 3 3 1 0 3 2 3 2 3 6 4 4 8 4 4 7 12 13 10 12 12
19 19 15 22 17 19 25 25 21 18 15 18 14 5 7 3 17 7 1 6 15 22 4 3 2 4 9 12 13 6 3 3 3 3 2 1 1 3 3 2 2 1 4 4 3 9 3 8 9 9 9 9 10 11
19 15 20 15 16 26 29 24 20 16 20 16 5 8 3 14 7 3 4 6 14 10 3 3 2 4 5 7 3 4 5 2 3 2 2 2 2 3 2 2 4 4 5 7 11 11 6 5 5 10 12 14 17 15
17 19 17 17 21 28 27 22 22 16 16 10 4 12 9 10 6 7 13 10 7 8 3 3 1 3 4 3 3 3 3 3 4 2 2 2 3 2 2 4 6 7 9 9 6 4 6 9 13 9 14 12 8 7
20 18 11 27 31 29 26 25 22 18 19 5 7 8 1 4 4 4 8 11 11 5 3 3 4 3 1 2 2 3 3 3 3 2 1 3 2 1 5 10 10 12 6 8 6 8 10 10 9 8 8 8 9 7
13 16 28 33 29 26 26 21 19 18 9 3 1 4 3 3 5 6 5 4 4 3 3 2 1 2 3 1 2 2 2 2 1 2 1 3 2 3 6 11 11 9 9 11 9 6 7 7 10 9 8 8 11 11
14 32 37 34 28 26 24 25 23 12 4 1 2 2 1 5 5 3 3 3 2 3 2 1 3 4 2 3 2 1 2 1 2 3 3 1 1 3 1 8 7 7 10 11 11 9 11 12 11 8 7 13 18 20
36 36 34 30 27 25 24 22 20 4 0 3 10 7 4 4 3 4 2 3 3 3 1 4 2 3 2 3 3 2 2 2 2 1 3 0 3 2 6 7 6 7 7 8 13 10 14 16 18 16 15 16 20 23
38 35 34 30 25 22 20 18 7 15 9 5 5 4 3 3 6 4 2 1 2 0 1 2 3 2 3 4 3 3 4 2 1 3 3 3 2 3 6 6 6 7 11 11 7 15 18 17 21 21 16 19 22 22
34 31 29 26 24 21 15 10 14 3 3 3 3 3 2 3 2 1 1 1 2 3 5 4 2 3 1 3 1 4 2 2 3 2 4 2 2 3 4 4 8 5 7 8 8 13 15 18 16 17 22 22 24 23
29 29 31 28 27 17 10 9 4 4 4 3 4 2 1 1 3 3 2 2 3 2 4 3 3 3 2 4 1 3 3 1 3 4 2 2 1 4 4 3 6 7 6 5 12 13 16 18 18 16 18 24 25 23
33 30 26 20 12 13 12 10 6 4 4 3 5 3 2 3 1 3 3 2 3 1 2 3 3 3 0 4 2 3 4 3 3 1 1 1 3 4 4 4 5 5 10 12 15 18 18 19 19 18 16 16 19 22
16 7 13 14 16 7 10 5 5 5 3 3 2 2 2 3 2 1 2 2 3 3 1 2 3 3 2 2 2 1 2 1 4 3 3 3 3 4 5 6 6 7 11 14 15 16 15 16 19 18 14 14 15 15
29 21 19 18 13 10 6 7 4 3 4 2 2 2 2 2 2 1 2 2 3 1 2 1 2 3 2 3 1 2 3 4 4 4 3 3 4 5 6 7 9 9 10 10 12 14 17 18 15 12 13 13 11 11
24 19 15 10 6 4 3 4 4 3 2 1 1 2 2 1 1 2 2 2 1 1 2 3 4 2 2 2 3 3 4 2 3 2 2 5 6 7 8 8 8 9 10 9 8 9 12 12 11 12 13 14 13 13
17 13 13 13 4 3 3 3 3 3 2 1 2 2 1 1 2 2 2 4 3 2 4 3 2 2 2 2 3 2 2 5 7 5 3 2 5 8 8 8 7 8 9 8 6 7 7 7 7 10 12 13 13 14
9 8 12 7 5 9 3 2 3 2 2 2 1 1 1 1 2 3 3 2 4 3 2 2 2 2 4 7 11 9 8 4 1 3 3 3 7 8 5 4 9 9 9 6 5 8 7 8 11 12 12 10 9 8
6 7 5 8 6 5 3 7 2 0 2 1 2 2 2 2 2 2 2 4 3 2 2 1 1 1 4 4 5 8 10 14 15 14 15 15 3 4 6 8 8 6 10 11 11 11 11 7 8 13 14 10 10 12
4 5 5 7 5 5 3 7 4 3 2 2 2 3 2 2 0 1 3 2 2 3 4 3 4 9 9 12 14 15 12 17 10 10 11 13 13 12 11 7 4 3 4 6 9 10 11 8 12 17 15 15 19 18
6 5 4 3 4 0 3 4 2 2 3 3 2 2 2 1 2 3 3 2 1 2 4 7 7 4 7 9 5 8 9 12 15 14 11 13 9 9 10 8 7 6 2 5 7 10 11 13 18 18 18 19 19 17
6 6 5 4 3 5 4 4 4 4 2 1 3 2 2 2 2 2 2 2 1 2 3 7 8 5 4 3 6 9 11 7 8 9 10 8 12 10 9 8 6 5 5 6 9 10 12 16 14 15 17 19 19 20
5 4 3 1 3 3 1 2 0 2 2 2 1 2 2 2 3 2 2 1 1 2 2 3 3 2 4 6 2 5 8 5 10 9 7 6 5 7 8 5 3 5 5 5 10 12 11 9 11 14 14 19 21 23
3 3 2 2 0 1 3 2 1 3 2 2 1 2 3 3 1 1 1 4 2 3 5 5 5 7 7 7 9 7 6 8 8 11 10 8 7 4 9 10 6 3 3 4 7 11 14 18 18 18 19 18 19 22
3 2 2 4 3 1 3 2 2 1 2 3 3 2 3 2 2 1 1 4 6 6 6 7 8 9 11 10 8 9 11 13 15 16 16 16 15 14 12 10 8 5 7 10 9 12 18 19 20 21 21 21 19 15
1 2 3 4 3 2 1 1 1 2 3 1 2 1 2 2 3 3 3 1 4 1 7 9 9 9 12 13 11 10 12 13 11 4 4 2 4 8 7 9 10 11 12 14 15 17 18 19 19 19 20 20 19 17
1 1 3 1 3 1 1 2 2 1 2 2 3 2 2 2 4 6 5 8 9 7 5 9 8 9 11 11 10 7 4 2 5 9 6 4 7 9 8 10 13 14 16 18 20 20 16 17 19 19 20 20 18 18
0 2 2 1 2 1 2 2 1 1 1 1 1 2 2 2 3 8 7 4 3 1 9 11 10 7 13 13 11 10 8 7 5 10 12 16 15 12 12 13 13 14 15 16 16 17 18 18 18 19 18 18 17 16
1 2 2 1 1 2 2 1 1 2 1 2 1 2 2 2 1 4 9 5 13 13 10 10 12 9 9 9 9 7 11 13 15 16 17 17 17 16 15 13 12 13 14 15 16 16 15 18 18 17 17 16 15 12
2 2 2 1 1 1 2 2 1 1 3 2 2 1 2 3 3 3 3 4 5 7 8 9 10 10 11 11 13 14 14 15 15 15 15 15 14 14 13 13 13 13 14 15 16 15 16 17 17 16 16 15 13 11
Wind_Direction
206 211 213 216 215 220 218 229 223 220 220 216 216 208 216 220 237 218 245 207 204 206 288 208 139 142 130 148 158 176 79 312 21 171 175 234 178 191 125 177 165 165 163 180 131 161 267 138 90 166 198 81 149 155
209 211 215 217 213 222 229 225 210 211 208 194 192 208 216 222 189 266 265 206 212 226 225 122 99 166 68 106 119 153 92 149 183 156 268 190 136 70 137 187 352 106 174 172 191 216 227 290 168 138 131 119 147 150
213 214 218 205 208 205 229 203 195 186 178 182 189 200 207 182 232 231 247 233 127 116 37 41 130 201 191 157 161 119 286 203 201 171 180 137 89 126 135 222 119 120 138 97 106 272 170 359 72 107 110 117 112 130
215 214 211 203 197 213 213 203 193 190 192 195 198 184 212 248 245 229 228 165 177 107 94 2 274 77 174 210 187 180 180 165 116 100 106 115 140 143 175 137 128 196 99 118 24 299 88 293 112 126 111 114 112 121
212 211 201 198 203 223 205 192 189 191 198 198 192 225 263 263 258 182 176 203 241 118 133 155 62 16 76 146 162 149 129 102 79 52 64 173 304 84 21 80 85 190 157 162 217 190 158 185 144 135 131 137 138 139
204 201 206 196 206 208 189 185 187 189 199 191 202 279 288 33 136 157 152 102 140 129 100 88 298 32 62 96 91 77 76 77 90 117 147 66 355 105 96 102 333 95 127 154 180 143 144 129 126 140 123 138 141 141
196 193 189 209 202 184 180 181 182 186 185 186 201 234 192 154 242 180 148 122 136 116 89 71 39 329 10 38 30 41 42 63 89 93 66 118 357 70 94 147 196 102 96 91 118 107 81 133 144 127 115 121 131 131
194 191 188 203 176 178 172 179 167 175 181 187 190 115 157 134 92 61 58 72 104 97 84 98 18 34 24 22 43 8 51 29 16 120 33 82 2 41 64 133 128 116 109 118 124 88 141 127 139 131 129 126 117 121
186 191 198 171 169 166 172 165 170 173 178 176 137 180 198 22 45 342 53 77 71 99 114 99 130 184 357 50 53 28 58 46 299 72 53 84 334 213 180 156 150 153 160 161 114 111 123 137 139 138 135 134 131 133
203 186 165 162 163 165 167 169 159 165 179 156 129 44 7 10 344 7 25 28 18 356 45 92 148 133 103 47 29 67 16 142 87 263 58 76 243 273 167 169 160 166 139 134 119 122 123 131 150 154 159 149 146 148
175 155 156 157 156 156 155 151 156 174 197 119 72 137 177 28 40 32 27 73 330 51 37 104 114 116 341 100 147 171 167 152 99 254 123 303 284 258 145 139 154 156 153 162 163 163 166 160 157 150 148 154 158 161
139 146 153 152 146 148 153 154 152 190 103 149 120 99 63 37 38 72 332 336 54 162 55 110 136 126 45 96 100 353 110 39 154 156 76 86 252 233 129 127 141 152 147 143 151 154 157 156 162 162 160 165 173 180
142 142 140 139 142 144 142 148 127 124 116 85 50 53 59 325 46 104 191 320 85 172 139 110 58 102 45 47 60 85 74 204 67 54 199 222 261 130 127 115 99 113 132 130 129 155 160 160 169 165 163 178 181 182
132 137 142 149 151 141 144 146 139 69 53 73 101 32 79 349 93 75 49 178 256 121 110 98 62 85 61 55 101 85 236 78 59 96 212 237 201 118 113 120 115 121 120 130 134 146 151 155 158 173 178 175 174 176
131 130 130 133 134 120 103 129 132 61 61 70 64 47 74 117 22 1 309 24 342 123 90 63 49 82 33 90 81 105 43 194 187 209 196 195 112 101 97 93 124 126 120 117 132 133 146 151 153 157 176 179 180 177
126 119 124 121 119 108 84 110 68 58 56 58 40 53 353 68 21 15 17 7 338 72 71 62 102 69 198 134 108 205 150 200 178 94 80 84 71 78 93 78 63 91 136 137 144 147 149 152 155 154 159 173 177 177
108 104 130 115 116 101 45 71 47 48 67 47 20 2 51 94 63 23 344 321 332 63 106 108 84 185 115 73 68 78 127 104 114 85 52 61 107 116 108 98 95 112 131 138 139 146 144 146 147 147 144 164 174 180
111 121 121 131 117 109 41 39 65 66 58 12 60 19 53 39 77 346 300 322 50 64 70 170 136 70 115 123 238 105 80 73 74 106 76 59 83 92 100 110 122 126 121 128 139 142 149 152 159 164 162 164 168 173
115 107 106 96 78 77 65 24 57 86 67 35 18 20 68 90 328 289 296 312 70 119 77 37 55 49 43 17 88 110 143 149 138 103 62 69 88 104 103 108 125 131 136 133 143 159 170 177 186 179 175 175 180 184
100 78 47 51 84 88 68 11 64 79 70 44 20 31 46 45 317 320 348 22 24 52 44 45 36 11 22 5 26 69 107 118 122 114 101 75 97 111 114 124 126 135 133 136 144 154 165 178 178 187 185 189 187 190
79 49 55 61 53 54 92 43 46 98 124 77 209 79 44 7 36 25 20 328 57 28 69 36 52 49 36 68 63 69 66 121 172 163 147 146 161 132 142 178 148 142 145 161 173 176 200 217 203 209 196 199 194 193
42 46 47 38 60 39 60 23 117 161 81 240 35 76 48 40 14 6 303 50 55 12 14 62 18 81 63 46 23 55 85 89 84 92 111 129 126 132 130 143 160 184 202 201 198 197 206 198 203 197 184 183 192 190
43 39 47 36 61 40 288 353 57 25 74 319 32 48 12 32 230 284 79 75 77 4 347 18 57 92 84 78 67 69 89 91 70 77 100 95 104 118 108 93 66 152 163 199 213 205 183 189 180 168 163 159 150 144
44 51 47 53 65 253 358 6 19 47 23 29 61 50 4 323 341 62 74 65 56 33 20 4 39 92 81 57 51 38 40 97 87 75 105 110 99 91 101 88 68 46 343 209 192 172 170 170 165 161 164 161 146 131
68 336 76 348 333 55 34 11 358 44 35 11 65 7 322 5 56 64 85 116 67 44 12 19 33 45 101 88 50 51 51 84 93 84 55 107 125 124 108 101 76 53 45 120 140 151 158 163 168 167 163 154 139 137
68 300 86 209 313 87 225 61 175 189 108 33 337 305 28 70 64 73 54 58 80 38 25 32 9 70 53 56 82 35 14 103 121 93 57 64 66 176 154 131 75 39 46 188 164 153 153 164 159 153 151 153 157 147
58 310 322 359 177 68 20 359 23 91 108 158 228 42 65 68 104 122 116 27 95 79 79 58 59 106 121 106 87 68 68 134 106 110 100 77 72 118 180 129 103 42 81 136 153 152 142 134 129 133 131 136 144 149
181 93 114 286 36 30 127 31 62 53 351 7 76 68 130 167 175 352 96 102 103 112 103 90 93 109 110 105 109 115 108 113 112 113 105 87 79 87 99 105 112 118 139 144 155 156 147 141 139 135 132 129 127 132
33 314 78 354 349 30 112 82 70 54 334 351 101 73 95 55 17 50 50 53 193 112 154 127 118 120 117 120 118 130 144 142 121 81 90 97 64 67 92 109 111 111 118 131 138 141 139 136 135 133 131 130 128 127
329 69 79 64 107 253 298 17 85 84 15 26 123 102 75 79 40 49 60 58 59 32 92 145 144 175 165 142 120 106 113 176 218 194 160 164 146 136 131 122 118 118 121 122 121 120 125 126 125 124 123 124 125 124
138 62 41 93 181 351 83 72 43 121 190 139 95 83 142 159 90 38 22 352 8 68 146 111 87 82 157 153 144 121 80 66 105 156 155 139 137 131 126 127 128 130 130 129 129 130 130 128 126 126 125 124 125 125
93 187 148 56 235 264 79 166 223 176 212 71 299 75 78 76 65 342 14 80 119 102 107 124 118 102 122 140 150 132 129 126 125 130 135 135 133 132 133 131 131 133 132 129 128 129 131 129 129 129 128 128 128 127
35 37 27 66 81 193 302 76 315 321 40 59 13 111 112 132 187 210 63 61 113 128 129 127 129 133 136 135 133 133 133 130 132 133 133 133 134 137 138 138 138 137 134 130 128 129 129 130 128 129 130 132 132 131